Wind_Speed
19 19 19 19 19 19 19 18 18 19 19 20 19 20 19 19 19 19 21 22 22 22 23 23 24 24 22 21 20 19 18 18 18 21 25 20 15 15 18 16 12 13 13 13 12 10 10 10 8 5 7 9 10 11 10 10 10 8 4 2 2 4 4 4 5 7 7 7 11 19 25 19 11 17 25 25 26 28 22 20 22 18 22 28 28 34 34 32
19 19 19 20 20 20 20 19 19 19 19 20 20 20 20 20 19 19 20 21 22 22 23 23 24 24 22 20 19 18 19 18 20 23 20 13 11 14 17 19 17 15 14 12 11 10 12 11 9 7 9 12 11 11 10 7 9 9 4 4 4 4 6 8 8 9 10 12 14 18 24 22 17 22 25 18 19 24 20 17 23 26 27 30 34 34 32 34
19 19 19 20 20 20 20 20 19 19 20 20 20 21 21 21 20 20 20 21 22 22 23 23 25 24 21 19 18 18 18 19 22 19 9 6 14 18 19 21 20 18 15 11 10 11 13 12 11 10 11 10 12 14 12 7 7 9 6 4 6 6 6 10 13 14 16 18 16 16 20 22 22 26 22 17 19 22 18 20 25 28 33 36 36 36 35 35
19 19 19 20 20 20 20 20 20 20 20 20 21 21 21 22 21 21 20 21 22 22 22 22 24 24 20 18 18 18 17 17 15 8 3 5 12 17 21 22 21 19 16 13 11 12 13 14 13 11 11 8 11 12 11 13 9 7 8 4 7 11 7 12 18 18 20 22 19 16 17 18 20 22 23 25 17 11 19 31 35 34 38 41 38 37 36 35
18 19 19 19 19 20 20 21 20 20 20 20 21 21 22 22 22 22 21 22 22 22 23 22 24 23 20 18 18 18 14 10 4 3 3 6 9 15 20 21 22 19 16 14 13 14 15 15 13 10 7 5 8 7 10 19 14 4 8 12 14 15 9 15 24 23 24 25 21 16 12 12 17 20 30 31 15 10 23 35 41 41 43 43 42 38 36 35
18 19 19 20 20 20 20 20 21 21 21 20 21 21 22 22 23 22 22 22 22 23 23 22 23 21 19 17 19 18 8 4 5 4 3 3 4 12 19 20 20 18 16 16 15 15 16 14 12 8 3 3 5 5 11 17 12 2 9 18 19 18 12 17 28 27 26 23 16 13 13 18 18 17 27 30 20 22 31 38 41 41 43 43 42 40 37 36
18 19 19 20 20 20 20 20 21 21 21 21 21 22 22 23 23 23 23 23 23 23 23 23 23 20 18 17 18 15 8 13 10 5 5 2 0 9 18 19 19 18 18 19 18 18 17 14 11 6 2 3 5 6 14 16 10 3 10 16 20 22 17 20 27 27 26 23 19 19 18 17 14 10 18 25 26 31 35 38 41 39 40 39 38 38 37 35
19 19 19 20 20 20 20 20 21 21 21 21 21 21 22 23 24 24 23 23 23 23 23 23 22 19 17 16 16 14 14 14 6 3 5 0 1 6 16 20 19 19 20 20 20 19 15 13 13 8 2 3 8 10 14 13 5 4 12 16 18 19 20 25 29 29 29 25 24 23 16 12 14 15 18 24 30 35 37 37 40 39 38 36 36 35 34 34
19 19 19 20 20 20 21 21 21 21 21 21 22 21 22 23 24 25 24 24 24 23 23 23 22 19 17 16 13 12 13 7 1 4 5 3 1 4 13 19 20 20 21 21 21 19 15 15 14 7 2 6 13 11 13 8 3 9 15 18 17 18 24 31 31 30 28 24 26 20 13 14 22 22 17 26 35 35 37 37 38 39 35 34 35 33 33 33
19 19 20 20 20 20 21 21 21 21 22 21 22 22 22 23 24 25 25 25 25 24 23 22 22 19 16 15 8 5 7 2 1 3 4 3 3 4 10 16 20 21 22 22 22 21 20 19 14 6 6 10 11 11 15 6 11 15 21 20 21 25 27 31 28 28 26 22 28 19 9 13 21 18 10 23 37 36 36 36 37 37 34 34 35 33 33 33
20 20 20 20 20 21 21 21 22 22 22 22 22 22 22 23 24 26 26 26 26 25 25 23 22 19 17 14 7 6 6 2 2 3 2 2 4 7 9 14 20 21 22 23 22 22 22 20 14 6 5 6 8 14 17 10 21 21 25 17 17 24 25 31 26 26 24 16 28 24 10 11 15 13 12 25 36 36 37 33 34 35 32 33 33 32 34 33
20 20 20 20 21 21 21 22 22 22 23 22 22 22 23 24 25 26 27 27 27 27 26 23 20 18 16 16 16 12 8 5 3 2 4 5 6 8 8 13 19 22 22 23 21 20 20 19 14 8 7 7 6 8 12 8 21 23 24 14 13 16 15 24 23 26 23 14 28 27 10 7 8 11 21 31 34 35 36 33 32 32 29 31 32 32 33 33
21 21 21 21 21 21 21 22 22 23 23 23 23 23 23 24 26 26 27 28 28 28 26 20 18 18 15 16 19 13 8 11 10 6 7 8 8 7 9 13 18 21 21 20 19 18 16 16 13 13 16 12 8 8 17 9 15 18 16 11 11 9 6 14 18 24 20 19 33 23 5 3 4 14 26 31 33 33 32 31 31 29 29 32 34 33 31 30
21 21 21 22 21 21 21 22 23 23 23 24 23 23 23 24 26 27 28 29 30 28 23 16 14 15 13 16 17 11 7 13 15 14 10 9 10 9 11 15 17 20 20 18 16 16 14 12 12 16 19 16 17 14 15 8 11 10 8 8 7 6 5 9 15 19 14 19 32 16 3 7 5 15 27 29 32 32 28 29 29 28 30 33 34 32 28 28
20 21 21 22 22 22 21 21 22 23 24 24 23 23 24 25 26 28 28 29 29 23 16 11 10 11 13 20 16 6 7 11 16 16 9 11 12 10 13 17 18 19 18 14 14 14 12 11 13 14 16 19 18 8 5 4 2 4 6 6 3 6 7 8 13 19 14 16 23 12 4 7 7 15 26 28 29 28 25 26 26 27 31 33 33 31 27 28
20 20 21 21 22 22 22 22 22 23 23 24 24 23 23 25 26 27 28 26 21 13 7 5 6 6 8 13 12 6 10 10 13 12 7 10 12 9 12 18 17 17 15 11 12 14 12 13 16 14 15 15 8 2 3 5 2 1 4 4 4 9 7 6 9 17 21 16 12 10 6 6 6 16 26 27 28 26 23 23 24 27 31 32 32 30 28 29
21 21 21 21 21 21 22 22 22 23 23 23 24 23 22 25 26 25 24 17 9 6 4 4 5 8 10 11 9 7 13 12 10 10 8 9 11 9 11 18 17 16 14 12 13 16 17 14 11 10 11 7 3 5 3 3 3 1 2 3 6 10 9 7 7 12 21 17 9 9 9 8 9 17 26 28 28 26 23 22 23 26 30 31 32 30 29 30
22 22 22 21 21 21 21 21 22 23 22 22 22 23 22 22 23 21 17 10 6 7 4 4 2 5 9 11 7 5 9 12 12 12 11 10 12 11 11 16 16 15 13 12 13 16 15 11 6 3 4 3 2 6 2 5 5 5 4 4 4 8 10 11 10 12 16 15 10 10 9 10 12 17 24 29 30 27 25 24 24 27 30 31 32 30 29 30
23 23 23 22 21 20 20 20 21 22 23 21 19 21 19 18 19 16 12 9 9 7 5 7 7 6 12 19 18 14 12 12 13 15 15 15 16 15 14 15 17 17 10 5 7 11 10 5 3 3 4 5 2 6 7 8 7 8 8 7 6 7 7 9 11 14 16 13 10 12 11 12 14 15 20 27 31 29 27 26 26 28 31 32 31 30 30 29
24 24 24 23 22 21 19 19 20 21 22 20 18 18 15 14 12 10 15 21 22 21 20 21 21 21 26 33 33 25 20 19 18 20 19 17 19 18 19 18 17 15 8 4 4 6 8 4 4 5 6 7 7 7 9 8 7 8 8 7 7 8 7 8 10 13 15 11 9 13 14 15 17 15 18 27 30 26 25 25 25 28 30 32 31 31 31 30
24 24 24 24 23 21 19 18 19 19 19 18 17 15 11 11 8 11 22 29 30 28 28 29 27 28 33 36 35 28 21 21 20 22 20 20 21 17 18 19 11 8 7 6 5 4 6 6 6 8 8 9 9 7 6 5 6 8 7 6 7 8 7 8 10 12 12 9 7 11 14 15 16 15 17 24 23 21 26 25 26 29 30 31 31 31 32 31
25 24 25 25 24 22 20 19 18 17 17 16 15 14 11 12 12 16 20 22 30 31 26 29 30 32 37 37 34 30 23 18 19 22 21 22 22 15 15 15 7 5 5 5 5 4 4 7 9 8 8 8 8 7 6 5 5 7 5 4 6 5 4 5 7 11 9 7 7 11 13 12 14 15 16 21 21 22 31 32 31 33 31 31 33 32 32 31
26 25 25 26 25 23 20 19 18 17 16 15 15 14 12 12 12 20 20 13 25 32 25 27 29 31 34 34 32 27 20 16 16 21 25 23 22 19 15 11 6 6 6 5 6 5 4 7 9 8 7 7 8 8 7 5 4 5 5 4 4 3 4 4 6 11 7 6 11 12 9 8 10 11 12 20 26 25 31 35 36 38 36 36 37 36 35 33
26 25 25 26 26 24 21 20 18 15 14 13 14 14 13 14 12 20 22 9 13 25 28 27 28 32 34 33 29 22 18 20 19 21 28 25 23 21 15 11 8 6 7 7 8 6 5 8 8 8 8 8 8 10 7 5 4 5 7 6 4 5 8 7 6 9 4 5 13 11 5 4 8 10 9 14 20 20 26 31 31 35 39 39 38 38 38 36
25 25 26 26 26 24 22 20 15 11 13 12 13 12 13 14 13 15 15 6 7 17 22 19 20 28 32 28 25 21 17 19 22 23 29 29 25 17 11 13 10 5 8 8 7 6 6 10 9 9 10 10 8 9 8 6 5 5 7 8 8 9 11 8 8 9 5 3 10 12 6 4 6 9 11 10 11 14 20 23 25 30 34 35 36 38 39 38
25 25 25 26 26 25 23 18 12 12 15 12 10 11 12 11 10 11 8 3 5 8 8 7 10 14 19 21 23 22 14 13 22 27 29 30 29 19 9 9 7 7 9 5 4 4 5 9 8 8 11 12 9 9 10 7 5 6 6 9 10 10 11 11 12 9 5 5 11 12 8 4 4 8 12 11 9 12 16 17 21 29 31 33 36 38 39 39
24 25 25 25 25 25 24 19 16 17 15 11 10 11 10 7 6 8 4 2 4 5 2 6 7 7 14 21 23 17 6 10 20 26 32 30 29 24 11 5 5 6 8 5 4 3 6 10 9 8 11 11 10 8 9 7 5 6 7 8 9 8 12 15 15 10 5 5 8 6 4 5 6 9 9 11 10 11 13 14 18 27 31 34 37 38 41 42
24 24 24 24 23 23 24 22 21 18 10 9 11 8 6 3 3 3 3 2 4 3 1 5 8 5 10 18 24 16 6 13 13 18 34 31 27 23 10 7 8 6 8 8 5 4 6 10 9 10 10 8 9 9 9 7 5 8 8 7 8 7 10 15 15 10 5 7 6 6 2 5 4 5 5 9 11 11 14 16 17 24 32 34 36 39 42 44
24 23 23 24 21 20 21 23 21 14 6 8 10 5 2 1 1 3 4 1 5 3 2 4 6 6 9 11 19 17 12 16 11 15 33 31 28 22 8 9 11 7 10 8 5 5 6 11 13 10 8 8 9 10 9 7 6 9 8 7 6 3 6 11 11 8 6 7 9 10 6 4 3 4 4 7 10 12 13 14 16 23 33 36 37 40 42 44
23 22 22 24 22 19 20 21 15 7 5 9 8 3 2 2 4 4 1 2 4 5 3 2 3 7 10 5 8 13 11 12 12 18 27 27 30 24 10 13 12 5 7 7 7 7 7 13 15 9 8 10 11 11 9 10 10 7 4 6 5 2 4 4 2 4 6 4 8 12 12 7 3 4 6 8 12 17 15 11 14 21 31 36 38 40 41 43
23 21 21 23 22 20 22 18 9 6 9 10 7 4 4 1 3 3 4 3 4 6 4 2 3 5 10 6 5 9 7 7 9 13 15 15 20 17 8 9 8 4 4 5 7 8 8 11 9 8 14 15 11 10 11 11 10 6 2 3 3 3 3 3 4 3 4 5 6 12 14 9 5 5 7 12 17 19 16 14 15 19 28 36 38 39 41 43
22 20 20 21 22 23 23 17 12 12 13 10 9 7 3 1 1 3 4 5 4 5 1 1 3 3 8 9 7 9 8 6 6 8 9 8 8 9 7 6 5 5 4 4 5 7 8 9 6 8 17 17 10 7 9 8 6 6 3 3 3 3 1 1 1 1 4 5 5 11 14 9 7 7 11 18 19 16 16 19 22 25 31 36 38 39 41 43
23 22 21 20 22 24 22 17 15 14 11 7 7 4 2 3 3 7 6 2 3 3 5 6 5 3 6 8 7 10 9 7 6 6 9 10 7 8 9 8 6 5 4 4 4 5 6 8 9 9 11 15 13 7 6 7 4 6 5 4 5 3 2 2 3 1 2 4 6 8 11 6 5 6 11 19 22 23 24 24 28 33 36 39 39 40 40 42
23 23 24 22 23 24 21 17 15 13 9 6 4 1 3 3 5 7 8 8 8 7 9 9 10 9 6 8 8 9 8 7 8 7 8 9 7 7 9 9 8 6 3 4 4 5 7 7 9 9 6 11 14 12 11 8 6 6 5 6 5 5 4 3 3 3 4 5 6 4 5 5 5 6 10 17 23 27 26 25 28 32 35 39 40 38 39 41
26 25 26 26 24 21 18 16 15 12 10 10 5 2 4 6 4 4 6 8 7 8 11 11 10 9 7 7 8 9 10 8 8 7 7 8 8 7 8 9 10 7 4 4 3 4 7 8 7 9 9 11 12 12 13 10 6 5 4 6 4 6 5 3 4 6 5 3 4 4 3 4 5 4 3 7 10 13 19 22 23 24 28 34 36 35 38 40
27 25 25 26 23 18 16 16 15 14 16 13 5 2 6 6 4 4 3 3 3 4 8 10 7 5 6 5 6 10 11 8 8 7 5 8 9 9 9 8 10 11 7 5 3 3 5 6 6 7 9 11 12 11 11 11 6 3 4 5 5 6 8 3 4 2 3 2 4 3 2 3 1 5 5 5 7 9 14 17 19 22 26 30 33 36 38 41
28 27 25 21 16 14 15 17 15 19 21 13 4 5 6 5 6 5 1 2 4 5 5 6 3 2 5 5 4 8 10 7 7 7 4 6 8 10 11 9 11 13 11 9 5 2 5 5 7 8 9 13 16 13 9 11 9 5 6 8 3 2 4 4 2 2 3 1 4 3 3 2 1 3 4 4 8 10 12 13 15 20 24 27 32 37 40 43
28 28 25 17 13 10 14 17 17 22 20 9 5 7 4 5 8 6 3 6 9 7 4 3 2 1 5 6 6 5 7 7 6 6 5 5 5 10 13 9 11 14 15 15 7 3 5 3 7 8 9 10 11 9 7 8 8 6 5 6 5 3 1 1 3 2 1 1 3 4 5 3 4 4 4 6 9 11 11 11 13 15 20 25 30 34 39 43
27 25 19 14 14 10 11 17 20 23 14 4 6 6 3 6 10 9 8 8 7 5 4 4 4 4 6 7 9 7 5 8 8 6 6 5 5 11 15 10 10 15 16 16 9 4 4 3 5 7 6 8 6 5 7 7 5 3 3 3 3 4 5 3 3 4 4 3 3 4 5 4 5 6 9 11 12 12 12 12 12 15 21 28 30 33 37 41
21 15 11 16 18 6 13 19 19 17 7 3 6 4 4 6 8 10 12 10 6 5 5 5 6 7 8 10 11 8 6 7 8 6 6 8 6 8 15 13 9 14 18 15 11 6 4 5 5 7 4 7 7 6 8 8 6 4 4 4 3 0 2 3 2 3 5 4 4 3 4 5 5 5 10 14 13 13 16 15 13 16 24 30 34 36 37 40
17 7 6 11 8 7 15 15 11 7 2 3 3 3 6 8 8 9 12 14 12 11 11 9 9 9 9 11 11 8 7 8 8 7 4 8 8 4 12 16 10 12 16 12 10 8 4 5 6 5 5 5 6 8 11 12 10 7 5 6 6 3 4 4 3 2 2 5 5 5 4 7 6 4 9 14 13 12 16 16 12 17 27 32 35 37 36 37
13 3 2 4 10 9 6 3 3 4 2 3 5 6 9 10 10 9 12 15 14 12 12 11 10 10 9 10 11 11 10 8 7 6 3 8 12 8 15 26 22 15 13 10 11 11 6 4 4 4 7 7 8 10 13 13 11 9 6 6 7 5 5 6 5 4 2 3 3 4 3 6 6 5 8 9 9 12 17 19 16 21 30 33 33 33 34 36
13 12 10 5 7 10 7 3 4 3 2 6 8 12 14 12 10 10 10 11 11 8 8 9 10 11 10 10 11 10 9 8 8 7 5 7 13 15 22 32 29 16 11 8 9 10 7 4 4 3 5 7 8 9 10 10 9 6 4 5 6 6 6 6 5 4 3 3 3 3 3 6 7 4 8 8 10 14 19 24 23 23 28 32 33 32 32 36
18 21 15 5 3 6 7 2 4 4 4 7 9 12 16 15 13 13 10 8 8 7 7 9 10 10 10 9 9 9 9 9 7 7 5 5 11 19 25 33 30 15 9 11 10 9 7 5 5 4 3 4 5 5 7 6 5 4 3 5 6 7 9 6 3 3 3 4 5 5 4 6 5 0 6 9 12 12 16 24 28 27 28 32 33 33 34 36
17 15 12 12 13 3 6 4 4 4 5 7 8 10 12 13 15 17 15 12 13 10 7 9 12 12 11 11 12 12 10 7 4 4 3 2 5 11 18 28 28 18 16 22 20 14 8 5 6 6 6 5 5 6 7 5 4 2 3 7 8 8 11 7 3 4 4 3 5 6 5 6 5 2 5 10 12 12 13 18 25 28 30 33 34 34 35 35
8 4 8 15 15 6 3 5 6 4 4 5 7 8 9 10 12 18 18 14 16 16 12 12 12 11 11 12 12 10 6 5 5 4 5 3 2 3 7 13 16 18 23 28 24 14 4 4 7 9 9 8 8 9 7 6 7 5 6 9 9 9 11 8 5 5 6 4 4 5 6 5 3 2 7 10 12 14 11 11 18 24 28 31 34 34 35 35
3 2 4 8 10 8 8 9 10 8 6 6 3 5 10 11 11 14 14 11 14 17 12 8 6 5 9 13 12 8 4 5 5 5 5 4 4 5 4 4 6 13 20 22 22 12 3 4 9 11 13 13 11 10 8 8 11 10 9 11 10 9 10 8 6 6 7 7 4 8 7 11 9 9 11 12 12 12 9 11 20 26 29 32 34 34 35 33
2 5 7 7 5 4 6 9 10 10 11 9 4 4 10 13 12 11 10 10 14 12 6 2 3 4 7 9 10 8 3 4 5 5 4 3 4 6 6 0 3 3 8 12 16 10 4 6 9 10 12 15 13 11 8 9 11 12 12 13 12 10 10 9 9 8 8 8 7 8 11 15 13 12 14 16 16 15 16 22 29 32 32 34 35 34 34 34
4 5 9 10 7 6 11 16 16 12 9 9 5 5 8 12 13 12 9 7 9 9 5 2 2 1 3 4 5 5 1 1 2 2 3 5 5 4 4 4 2 5 6 5 10 7 4 6 9 11 11 12 13 11 8 8 9 12 14 14 12 12 11 11 10 9 10 10 8 11 15 14 13 15 17 19 21 21 23 26 30 31 32 33 33 33 33 34
6 5 10 13 10 10 14 15 12 8 7 7 4 4 8 11 13 14 12 8 7 7 5 4 2 1 3 5 4 3 2 1 2 3 2 4 5 4 3 3 4 7 7 2 4 5 7 7 8 12 9 9 10 8 6 8 8 11 14 12 9 10 10 11 10 9 9 8 7 13 14 10 9 10 12 13 17 18 18 20 23 27 30 30 29 31 31 32
6 4 9 11 7 6 8 9 8 5 4 4 3 5 9 12 15 17 13 9 5 6 6 8 6 2 2 5 7 7 6 4 5 7 5 2 4 6 5 3 3 6 5 2 1 4 8 5 4 8 7 6 7 5 3 5 7 8 10 8 6 4 4 5 4 5 7 6 5 9 10 9 9 5 4 6 11 13 13 16 21 26 29 28 27 28 29 27
9 5 8 8 4 4 6 6 6 5 3 4 7 9 10 14 19 17 9 4 7 11 13 13 6 1 2 4 5 9 15 15 15 17 14 11 10 10 9 8 6 4 3 2 2 3 6 5 4 6 7 5 5 7 6 4 3 2 6 6 6 5 5 5 4 2 4 6 6 6 8 9 7 7 8 7 8 11 14 19 24 26 27 27 26 25 24 21
Wind_Direction
338 339 339 339 339 340 341 340 340 338 338 337 337 336 335 335 334 333 332 331 330 328 327 328 330 328 324 322 315 309 303 296 292 284 276 273 266 253 242 233 221 222 225 229 239 241 241 245 237 241 281 279 273 263 248 244 222 186 152 129 177 178 182 186 174 161 136 125 115 121 127 126 134 135 134 135 134 137 138 139 139 135 141 150 152 149 150 153
336 338 337 338 338 338 339 339 338 337 336 336 336 335 334 334 333 332 331 330 328 327 326 326 329 329 325 324 320 312 304 301 295 285 282 283 261 236 226 222 215 214 217 221 226 232 236 236 234 259 297 294 279 260 260 251 196 182 130 135 202 200 183 172 164 158 134 126 127 130 133 132 140 141 139 136 132 132 124 127 130 123 133 146 149 149 151 155
335 336 336 337 337 337 337 337 337 336 334 335 334 334 334 333 332 331 330 329 327 326 324 325 329 328 325 325 323 315 311 310 299 290 290 256 232 217 210 210 208 210 211 211 214 223 229 231 240 270 296 295 278 261 253 248 206 197 164 140 202 185 167 168 154 148 140 132 129 135 138 136 147 152 146 132 128 133 133 137 132 126 135 145 151 153 154 158
334 334 335 336 336 336 335 335 335 334 333 333 333 333 333 332 331 330 329 329 327 325 324 324 328 328 324 323 324 321 322 319 299 283 319 260 229 211 205 201 201 206 205 205 214 218 225 237 245 272 289 283 280 274 251 242 236 202 181 156 178 160 149 168 151 139 136 128 126 135 135 141 155 153 137 127 126 141 147 146 143 141 144 148 153 154 156 161
333 333 334 334 334 334 333 334 333 332 332 331 331 331 332 332 330 330 329 328 327 325 323 322 326 327 321 321 322 322 330 335 279 199 332 287 230 208 202 196 196 200 199 204 211 214 224 236 246 270 276 261 281 277 256 242 232 215 161 140 149 154 154 161 139 125 127 122 122 125 123 145 146 133 134 136 138 160 154 149 148 149 151 153 154 155 158 160
331 331 331 331 332 331 331 331 331 330 329 329 330 329 330 330 328 328 328 328 328 325 323 321 325 325 319 318 319 323 328 296 242 213 309 307 227 202 196 194 193 192 194 201 206 213 226 233 244 268 248 248 278 249 275 263 233 215 129 139 153 154 150 149 134 128 128 117 111 114 117 128 121 122 141 142 144 155 154 150 148 150 153 154 154 157 160 160
329 329 329 329 329 329 329 329 329 328 327 327 328 328 328 328 328 327 327 329 327 326 324 320 324 323 317 315 318 321 288 272 277 260 276 330 260 194 190 192 190 188 193 198 203 211 225 233 235 261 285 278 285 252 278 278 241 183 124 145 159 153 149 146 137 131 126 115 113 116 115 119 116 126 141 137 143 150 151 150 148 149 151 153 155 159 162 162
326 327 326 326 326 327 326 326 326 325 325 324 325 326 326 326 326 325 326 327 327 328 326 322 322 321 317 315 320 318 287 283 298 238 243 69 51 192 186 190 189 191 195 195 204 212 220 228 231 255 290 247 274 272 281 285 250 151 135 150 156 148 142 133 127 123 120 120 119 112 102 101 112 118 124 131 141 146 148 150 150 150 152 154 158 160 163 164
324 324 324 324 324 324 324 324 324 323 323 322 323 324 324 324 324 323 324 325 326 326 326 324 319 317 315 310 320 319 295 295 351 203 196 162 184 206 192 193 191 193 198 199 208 214 217 222 224 242 291 291 287 283 288 289 168 151 144 144 140 129 126 124 122 122 122 124 120 107 93 95 107 110 113 132 140 145 147 149 151 153 156 159 162 163 165 166
323 322 322 322 322 322 322 322 321 321 320 320 321 321 322 322 320 321 321 323 325 324 326 324 316 314 310 307 318 317 291 283 113 185 170 192 219 226 211 200 198 198 199 203 210 212 215 217 213 239 300 302 296 296 294 251 148 146 137 131 129 122 121 122 120 122 122 124 124 118 106 100 109 112 116 139 142 146 147 149 154 155 156 160 165 166 167 169
321 321 321 320 320 320 320 320 319 318 318 318 319 319 320 319 318 318 319 321 322 321 323 320 315 307 303 303 272 255 284 257 182 164 172 273 258 251 233 211 206 204 203 208 214 214 215 218 220 262 302 293 295 306 296 181 144 139 130 115 117 121 121 122 122 126 123 124 127 121 107 95 103 117 137 146 145 148 148 151 157 159 160 163 168 169 171 174
320 320 320 319 319 318 318 318 317 316 316 316 317 317 318 317 315 316 317 320 319 319 320 316 311 301 301 294 266 270 296 260 225 181 211 248 269 272 245 224 214 206 210 214 217 216 216 224 230 254 263 280 306 315 300 186 144 134 126 109 112 118 124 129 131 133 126 127 130 119 98 94 102 130 145 148 148 150 149 153 160 162 166 169 171 171 173 174
319 319 319 318 318 317 317 316 315 314 313 313 315 315 317 316 314 315 317 318 317 316 316 312 305 298 296 282 276 296 294 238 220 209 216 234 254 262 232 222 217 210 217 222 222 220 219 226 234 258 263 278 288 281 299 275 148 129 119 120 126 115 134 142 135 133 128 138 138 126 107 152 138 139 148 151 151 152 151 157 163 164 168 169 170 170 171 172
318 318 318 317 317 316 316 315 314 311 310 311 312 314 316 315 313 314 316 316 314 313 312 306 300 299 286 274 287 313 276 227 218 213 209 233 245 248 224 208 211 214 219 225 228 224 220 230 249 272 274 271 268 273 298 277 150 127 117 128 128 117 167 166 143 136 130 147 146 131 115 173 168 144 150 155 154 154 156 162 165 166 168 168 171 174 176 179
318 317 316 317 316 316 315 314 313 310 308 308 309 313 315 314 313 315 317 316 313 310 307 300 293 296 285 280 288 281 235 220 214 207 200 232 231 235 223 201 204 213 218 225 224 223 224 249 264 269 275 272 266 275 316 289 122 104 135 146 133 126 165 181 157 147 139 152 149 124 108 166 169 156 154 156 158 157 159 166 168 167 169 171 176 180 183 187
319 318 316 316 315 315 316 315 314 310 307 306 307 310 313 314 314 315 317 316 314 310 302 289 280 293 287 287 291 232 215 212 202 199 211 229 214 228 222 197 202 212 216 221 215 231 245 261 268 260 262 267 253 121 7 305 324 70 139 164 154 136 159 181 180 163 144 149 154 126 136 168 169 167 160 158 161 161 161 168 169 168 171 174 178 182 184 187
320 319 317 316 315 315 316 316 315 311 307 306 305 309 314 314 314 316 319 320 327 334 306 253 267 291 270 269 289 242 217 209 195 198 221 227 210 225 209 192 205 210 215 223 223 245 255 251 257 256 253 248 168 101 34 281 220 223 114 144 154 148 163 168 192 182 150 148 164 141 145 168 170 168 165 165 166 166 167 170 170 170 173 178 182 185 187 189
321 319 318 317 316 316 316 317 316 313 309 307 307 312 314 314 317 320 319 320 338 355 337 232 249 310 272 262 273 251 224 220 219 216 215 216 217 226 207 197 206 210 220 233 233 241 245 241 230 229 258 251 128 106 138 229 194 181 157 142 158 159 170 170 174 184 161 150 153 146 150 163 164 166 169 171 170 170 174 174 172 172 176 181 185 187 189 194
321 320 319 317 317 317 316 317 317 315 311 307 308 313 315 321 327 329 327 314 305 320 313 255 249 270 279 279 276 275 276 268 254 234 215 202 211 224 218 207 210 214 221 232 235 226 215 240 246 205 240 242 197 140 181 218 190 184 174 157 169 169 182 181 171 177 165 149 151 155 155 158 162 170 174 173 172 173 177 178 174 175 180 184 188 190 191 196
321 321 319 317 316 316 317 318 316 316 314 309 313 317 322 336 338 338 332 314 295 289 287 279 268 263 271 278 280 280 283 287 273 240 222 203 205 218 216 211 212 216 218 187 223 221 192 221 250 210 221 229 220 194 196 208 203 200 179 168 176 169 192 193 175 178 160 141 166 164 154 161 167 175 178 173 172 174 178 180 178 179 182 185 189 192 193 197
322 321 319 318 316 316 317 318 316 316 313 311 316 316 326 349 344 330 325 313 301 293 284 281 274 267 272 275 277 280 279 286 278 244 222 202 205 213 210 208 204 211 220 193 212 228 185 214 237 212 218 230 232 225 210 208 223 222 195 185 189 176 195 196 171 176 157 131 170 166 152 166 172 175 180 172 172 177 180 181 182 184 186 188 190 192 194 196
321 320 319 317 315 316 317 316 315 313 310 308 306 303 321 346 345 335 323 302 298 296 282 279 275 267 272 272 269 272 269 270 272 248 217 200 210 211 195 199 195 202 219 192 204 229 197 227 236 218 222 239 251 250 234 228 222 232 226 182 202 196 175 202 177 170 162 129 165 169 156 172 180 177 178 176 178 183 182 183 185 186 185 186 189 191 192 191
321 320 319 316 314 315 315 315 314 310 307 300 294 302 321 330 342 343 330 291 291 294 278 268 265 258 264 267 263 263 253 242 254 240 212 199 208 203 186 189 190 192 204 192 193 193 202 239 234 224 234 242 257 261 247 251 235 223 231 194 211 205 160 218 195 167 162 136 159 165 155 174 186 182 183 183 184 184 184 185 187 188 187 188 191 191 188 188
320 319 318 316 313 313 315 316 312 309 305 292 296 310 316 315 331 342 331 300 284 290 280 268 257 251 253 255 254 249 236 232 239 228 208 199 199 197 192 188 176 188 210 201 191 185 217 247 228 221 242 236 244 259 247 247 255 226 216 199 192 201 202 218 182 155 117 119 151 141 124 195 193 189 198 190 187 186 185 185 185 188 190 189 190 190 189 189
319 318 318 316 313 312 314 315 312 310 302 296 304 305 301 306 317 335 332 309 276 285 288 274 249 245 245 245 244 238 232 230 233 222 203 198 197 188 192 194 179 194 212 200 191 192 231 246 221 208 236 240 235 252 243 221 242 252 220 194 184 197 210 203 162 141 88 126 169 141 133 237 225 199 203 194 187 189 187 186 186 188 188 185 185 187 189 189
318 317 318 317 314 314 313 312 311 310 309 309 309 295 296 307 315 332 342 330 287 278 279 239 223 233 227 229 228 222 230 232 232 220 197 197 202 189 188 198 183 197 200 194 205 192 221 239 227 204 223 239 236 245 245 217 218 258 227 196 194 193 190 174 162 154 127 184 194 167 153 198 233 221 212 196 184 190 192 190 190 189 186 184 185 187 188 188
317 316 318 316 316 317 314 310 307 311 316 312 303 293 299 315 327 338 6 357 291 248 219 184 201 203 195 209 206 197 218 218 217 209 191 194 201 195 196 192 177 200 184 175 217 191 192 217 231 220 217 233 235 240 241 205 192 249 234 206 205 187 175 170 166 174 166 154 185 192 124 119 198 222 208 194 189 193 197 195 193 192 189 188 187 189 188 189
316 315 315 313 315 317 312 305 306 316 318 301 304 304 307 319 319 358 72 357 282 232 233 192 205 206 190 200 196 191 190 179 186 197 191 193 197 195 200 188 180 199 190 185 214 217 192 203 218 220 221 230 231 236 230 188 188 244 239 216 203 181 180 176 170 183 161 124 173 224 109 111 224 241 176 187 199 200 202 199 196 193 192 191 189 190 190 191
315 314 313 311 311 311 304 298 304 317 307 299 314 310 322 79 137 69 91 283 282 283 292 199 199 199 185 182 189 201 195 173 176 188 187 192 197 197 203 201 194 199 206 197 200 220 210 207 211 212 223 232 233 241 227 191 211 243 242 225 206 153 166 175 172 171 138 137 188 207 185 157 253 255 169 184 207 209 206 200 198 195 193 193 192 192 192 192
314 313 312 310 308 306 297 291 300 318 301 305 312 311 28 119 119 68 112 244 301 291 270 195 197 181 180 169 188 207 202 188 190 179 180 188 195 198 205 209 205 195 213 211 202 222 229 220 217 209 222 231 233 242 229 209 218 240 257 234 235 21 84 139 133 120 135 182 209 202 198 192 228 242 195 189 205 205 200 192 194 196 195 195 194 194 193 193
312 311 311 309 307 303 291 286 298 316 305 305 302 324 10 73 93 100 209 283 317 264 252 219 224 169 173 177 185 201 204 202 189 166 175 187 189 194 195 200 204 187 216 224 216 233 242 232 224 208 219 226 232 241 238 227 215 218 246 185 223 311 34 47 9 68 160 228 230 201 199 197 219 244 212 211 215 205 194 187 185 191 196 196 195 195 195 194
312 309 307 305 301 293 283 284 294 294 300 305 296 308 359 85 45 200 225 338 328 236 268 253 223 179 189 191 185 197 195 199 189 159 171 178 181 197 193 190 186 181 215 216 214 234 237 235 233 220 221 217 219 238 245 249 221 204 215 108 144 266 352 69 268 204 197 243 236 189 184 195 221 229 210 212 220 213 199 192 184 186 192 192 193 196 196 195
312 308 304 298 292 285 279 284 284 276 286 292 282 301 79 130 225 221 218 289 256 254 354 344 326 320 212 197 193 196 191 201 201 170 176 178 177 196 205 205 172 154 195 196 197 225 234 243 229 223 223 210 209 220 231 248 229 198 195 145 155 166 132 211 238 234 210 257 257 186 172 196 241 243 215 206 213 213 204 195 187 186 189 189 190 194 196 195
312 310 303 294 287 282 280 280 270 261 262 245 228 101 134 193 226 210 209 226 246 288 322 325 323 314 256 218 212 191 183 212 208 170 170 178 182 194 206 215 193 152 150 180 190 199 213 241 223 212 213 199 206 213 209 213 217 209 172 145 165 160 156 200 202 196 204 232 256 207 172 193 204 235 217 203 212 211 198 191 189 188 189 187 187 191 195 196
312 310 303 297 289 282 277 269 254 241 220 193 166 115 182 216 227 205 219 230 250 287 302 310 313 302 270 238 231 199 182 206 206 179 173 179 188 195 196 212 206 178 152 184 211 196 208 239 232 217 215 200 203 209 198 190 211 231 149 124 176 178 161 185 192 187 181 202 242 212 202 211 203 265 264 185 202 194 178 182 186 184 184 183 184 188 193 196
314 312 304 297 291 283 266 251 236 215 194 173 149 203 211 224 216 188 207 208 218 284 311 322 321 302 288 257 235 212 194 199 201 193 191 186 190 196 195 205 202 190 178 187 221 196 197 247 255 218 219 218 207 188 176 179 192 221 185 180 211 177 148 157 232 236 112 155 259 236 269 306 289 322 353 101 135 152 164 176 180 179 178 178 182 187 192 196
320 318 311 307 307 288 246 230 222 199 184 168 172 221 221 240 228 214 244 327 319 333 346 335 334 316 299 284 242 211 194 193 200 196 196 191 193 195 196 205 201 196 189 187 221 218 180 256 268 213 213 229 217 195 183 184 166 155 206 209 204 148 119 119 196 326 59 153 280 283 258 270 165 287 326 110 148 168 172 172 176 180 177 177 183 188 192 197
325 321 318 326 333 298 224 208 206 189 174 167 223 236 233 244 236 234 301 328 320 325 328 302 293 277 292 296 293 243 189 188 196 188 189 194 201 194 191 201 204 202 195 187 206 251 189 250 279 227 210 223 216 202 209 208 175 154 185 189 162 163 192 117 160 164 108 205 274 296 272 232 192 216 210 172 179 181 175 172 177 182 181 183 186 186 190 196
327 322 322 333 332 303 204 187 185 176 162 166 224 229 253 258 258 264 285 303 309 308 291 272 258 267 286 290 297 294 221 202 194 184 190 192 206 199 191 193 202 205 200 186 191 237 197 190 283 264 221 196 192 194 209 225 222 169 143 169 185 172 175 182 169 158 161 195 227 277 290 261 223 208 186 186 190 177 170 178 186 188 188 189 189 188 189 193
330 323 322 327 325 303 171 166 166 165 164 211 211 231 280 276 277 273 270 269 259 250 259 263 260 272 284 282 285 290 264 236 210 194 194 187 193 204 197 193 193 204 205 194 188 206 190 178 245 287 263 191 194 207 197 199 210 196 159 179 220 287 142 168 187 152 145 158 185 214 261 266 248 211 183 183 184 178 177 182 190 191 191 194 196 195 193 193
342 329 314 335 4 120 150 154 155 167 216 246 224 259 273 274 281 279 273 265 249 237 242 250 254 262 273 278 284 283 274 266 232 211 202 186 183 193 205 203 194 193 203 205 198 195 183 177 205 266 278 229 219 215 199 193 191 177 165 184 192 160 127 160 229 287 132 156 171 175 219 264 260 204 183 184 183 183 182 178 184 192 194 198 201 201 199 195
351 318 255 99 113 140 170 179 191 191 202 240 247 255 264 273 273 273 273 265 258 249 242 247 252 253 260 264 266 266 263 264 238 220 211 192 190 186 201 206 204 190 187 206 212 196 175 151 172 223 252 247 236 219 202 189 179 169 172 186 182 157 129 150 203 247 233 184 150 133 188 264 266 194 174 178 173 176 181 179 183 192 197 201 203 202 200 198
336 301 274 204 190 224 234 275 273 227 224 251 253 256 259 263 268 272 269 256 256 258 247 252 257 253 256 255 253 260 264 260 245 228 216 203 205 201 196 200 205 196 177 197 212 194 178 165 172 219 273 271 259 240 213 184 165 165 179 166 167 175 159 152 169 177 196 203 153 133 205 266 278 208 160 158 160 171 185 188 187 191 198 202 203 201 200 201
325 306 288 289 323 244 208 217 257 243 260 256 252 255 252 251 255 259 258 245 247 256 252 256 260 256 263 274 279 291 291 278 260 238 221 201 214 214 201 196 199 193 180 196 191 176 186 181 161 178 251 271 274 259 230 209 183 176 176 166 173 177 164 151 118 125 220 225 158 146 212 252 281 300 146 161 161 171 189 188 186 188 195 202 203 201 201 203
330 312 299 330 348 302 212 241 262 254 276 276 276 276 265 261 260 257 255 249 246 249 252 256 265 272 281 293 294 288 284 281 285 285 266 225 226 227 211 203 201 192 193 197 181 162 179 184 158 172 197 205 211 216 213 207 210 210 169 176 184 174 170 171 128 139 223 232 141 143 205 252 298 44 154 172 165 172 186 178 176 179 185 193 195 192 194 197
337 318 312 330 339 335 294 330 358 350 322 322 311 296 288 287 282 274 269 257 247 246 248 254 267 284 288 288 285 276 281 293 299 325 318 300 309 269 221 212 211 209 208 198 177 155 152 187 173 174 190 197 197 213 212 176 181 209 196 190 197 190 181 165 123 159 195 172 169 203 188 189 244 181 174 182 172 174 180 166 166 172 176 184 186 184 186 191
315 307 349 340 331 341 349 359 21 15 322 318 320 288 295 299 295 286 278 269 259 248 238 239 250 272 283 287 288 278 296 325 317 339 340 315 310 290 250 178 189 226 229 205 179 159 130 188 185 178 196 212 209 216 222 187 185 201 203 202 203 195 183 166 163 187 163 138 214 249 187 167 194 200 188 190 183 177 177 166 166 169 172 178 180 179 181 187
296 318 353 357 326 336 351 334 335 329 308 305 292 269 293 297 294 290 277 276 274 258 234 207 214 238 270 286 296 292 313 2 342 336 336 323 325 315 304 328 141 238 265 216 187 165 137 191 193 178 200 221 220 214 207 190 194 201 205 209 205 189 180 184 201 193 153 159 211 219 185 179 189 194 190 189 186 183 179 171 166 166 170 176 179 179 181 188
331 320 335 347 333 299 299 299 300 302 303 308 290 262 293 299 298 300 290 282 281 265 245 221 199 271 320 295 285 277 261 36 343 321 332 329 327 335 333 305 298 23 10 224 199 173 162 198 192 181 199 225 226 220 199 181 197 208 210 212 203 190 181 186 202 189 172 196 205 175 181 196 195 192 195 194 187 179 171 167 165 165 169 173 175 178 183 191
355 343 326 330 321 295 293 295 299 300 294 297 280 273 307 305 302 309 303 287 290 289 276 275 280 11 354 337 322 283 209 161 244 242 290 340 331 320 325 292 308 357 3 276 221 202 206 217 192 177 191 220 220 220 209 192 198 209 214 214 208 206 200 198 206 192 180 210 199 163 176 211 220 202 193 186 176 165 158 160 162 164 168 169 172 177 183 190
355 350 332 323 303 298 305 301 306 304 282 291 301 311 319 310 306 309 295 270 296 333 320 313 325 0 15 24 17 337 323 322 276 263 263 273 282 282 276 263 312 333 329 324 316 226 214 221 183 158 165 208 197 157 153 187 185 193 203 198 185 199 202 191 194 174 170 184 166 153 175 213 227 204 138 144 158 153 151 155 156 159 163 165 172 181 185 186
357 352 359 349 298 294 320 315 311 298 282 338 332 317 310 304 306 310 299 289 336 342 332 322 329 63 86 71 42 323 315 315 302 296 292 274 270 285 294 296 288 266 260 292 303 227 196 178 168 153 157 211 207 136 105 76 84 199 225 192 140 120 105 84 54 69 168 157 138 162 203 217 206 160 137 150 164 157 156 159 158 158 158 159 166 174 177 177
Height
1534 1532 1531 1530 1528 1527 1525 1524 1523 1521 1519 1518 1516 1515 1513 1512 1510 1509 1507 1505 1504 1502 1501 1499 1498 1497 1496 1494 1493 1492 1491 1491 1489 1488 1485 1482 1484 1486 1487 1488 1490 1491 1493 1494 1494 1494 1494 1493 1494 1494 1494 1494 1494 1493 1493 1494 1495 1497 1503 1513 1519 1518 1517 1511 1510 1511 1509 1511 1510 1509 1511 1514 1520 1521 1522 1525 1528 1529 1533 1536 1536 1539 1540 1541 1543 1546 1549 1551
1533 1532 1530 1529 1527 1526 1525 1523 1522 1520 1518 1517 1515 1514 1512 1511 1509 1508 1506 1504 1502 1501 1499 1498 1496 1495 1494 1493 1492 1491 1489 1488 1487 1484 1482 1481 1482 1482 1483 1486 1488 1489 1491 1492 1493 1493 1492 1492 1493 1493 1493 1493 1493 1492 1493 1493 1493 1496 1501 1512 1516 1511 1506 1501 1502 1503 1503 1508 1508 1509 1510 1512 1517 1519 1521 1526 1529 1530 1534 1537 1538 1539 1541 1544 1545 1547 1550 1551
1532 1531 1530 1528 1527 1525 1524 1522 1521 1519 1517 1516 1514 1512 1511 1510 1508 1506 1505 1503 1501 1500 1498 1496 1495 1493 1493 1492 1490 1489 1488 1487 1484 1481 1479 1478 1478 1479 1481 1483 1485 1488 1489 1491 1491 1491 1491 1491 1491 1492 1492 1492 1491 1492 1492 1491 1492 1492 1499 1511 1509 1501 1500 1498 1500 1500 1501 1504 1505 1509 1510 1511 1515 1517 1520 1524 1528 1530 1531 1534 1537 1539 1541 1544 1546 1548 1549 1551
1531 1530 1529 1527 1526 1524 1523 1521 1520 1518 1516 1515 1513 1511 1510 1508 1507 1505 1504 1502 1500 1498 1496 1495 1493 1492 1491 1490 1490 1489 1487 1485 1481 1478 1478 1476 1476 1477 1478 1480 1483 1486 1488 1489 1489 1489 1489 1489 1490 1490 1490 1490 1489 1490 1489 1489 1491 1490 1495 1503 1498 1495 1499 1499 1499 1500 1501 1502 1505 1509 1510 1512 1515 1516 1519 1522 1530 1533 1529 1529 1531 1534 1538 1541 1545 1548 1549 1551
1530 1529 1528 1526 1525 1523 1522 1520 1518 1517 1516 1514 1512 1510 1509 1507 1506 1504 1503 1501 1499 1497 1495 1494 1492 1491 1490 1489 1489 1487 1488 1488 1480 1476 1477 1475 1475 1475 1477 1479 1481 1484 1486 1488 1488 1487 1488 1488 1489 1489 1490 1488 1488 1490 1487 1484 1487 1489 1489 1490 1490 1492 1497 1497 1496 1500 1501 1503 1505 1508 1510 1513 1513 1516 1518 1519 1527 1531 1528 1528 1529 1531 1535 1537 1542 1546 1549 1551
1529 1528 1527 1525 1524 1523 1521 1519 1517 1516 1514 1513 1511 1510 1508 1506 1504 1503 1501 1500 1498 1496 1494 1493 1491 1490 1488 1488 1488 1486 1489 1488 1478 1475 1477 1475 1474 1474 1476 1479 1480 1483 1485 1486 1486 1486 1486 1487 1488 1488 1489 1488 1488 1489 1486 1483 1484 1489 1488 1484 1488 1491 1493 1496 1495 1498 1501 1503 1506 1508 1510 1511 1513 1517 1518 1517 1521 1525 1527 1529 1530 1532 1534 1537 1540 1543 1547 1549
1528 1527 1526 1524 1523 1521 1520 1518 1516 1514 1513 1511 1510 1508 1507 1505 1503 1501 1500 1499 1497 1495 1493 1492 1490 1488 1487 1487 1486 1486 1486 1482 1475 1475 1476 1474 1474 1474 1476 1478 1480 1482 1483 1484 1485 1485 1485 1485 1486 1486 1489 1489 1488 1487 1484 1483 1482 1487 1490 1486 1488 1489 1490 1494 1495 1497 1500 1503 1506 1508 1510 1511 1513 1517 1518 1518 1521 1525 1528 1530 1531 1534 1536 1539 1541 1543 1545 1547
1527 1526 1524 1523 1522 1520 1519 1517 1515 1514 1512 1510 1509 1507 1506 1504 1502 1500 1498 1497 1496 1494 1492 1491 1489 1487 1486 1486 1485 1484 1482 1477 1474 1475 1475 1475 1475 1474 1476 1477 1479 1481 1481 1483 1483 1484 1484 1483 1485 1486 1489 1489 1486 1485 1482 1484 1483 1484 1489 1487 1487 1489 1490 1492 1494 1498 1501 1504 1507 1508 1511 1513 1514 1515 1517 1520 1523 1526 1529 1531 1533 1535 1538 1539 1541 1543 1545 1547
1526 1524 1523 1522 1520 1519 1517 1516 1514 1513 1511 1509 1507 1506 1504 1502 1501 1499 1497 1496 1494 1493 1491 1490 1488 1486 1486 1485 1484 1483 1478 1473 1473 1474 1474 1475 1475 1475 1476 1476 1478 1479 1480 1481 1482 1483 1483 1482 1484 1486 1488 1487 1485 1484 1482 1487 1488 1481 1482 1484 1486 1489 1490 1492 1494 1497 1501 1504 1506 1509 1513 1516 1516 1516 1522 1523 1524 1528 1529 1532 1534 1535 1538 1539 1541 1543 1544 1545
1524 1523 1522 1520 1519 1518 1516 1515 1513 1511 1510 1508 1506 1504 1503 1501 1499 1498 1496 1494 1493 1491 1490 1489 1487 1485 1485 1483 1485 1483 1475 1472 1473 1473 1474 1474 1474 1475 1476 1477 1477 1478 1479 1480 1480 1481 1481 1481 1484 1486 1488 1485 1483 1483 1482 1485 1483 1478 1479 1482 1485 1488 1490 1492 1494 1497 1502 1504 1505 1510 1515 1517 1516 1519 1528 1529 1525 1529 1531 1533 1535 1535 1537 1538 1540 1542 1543 1545
1523 1521 1520 1519 1517 1516 1515 1513 1511 1510 1508 1506 1505 1503 1501 1500 1498 1496 1494 1493 1491 1490 1489 1487 1486 1484 1483 1482 1483 1480 1473 1472 1472 1472 1473 1474 1474 1475 1475 1476 1476 1477 1478 1478 1478 1479 1480 1482 1485 1487 1488 1485 1483 1483 1480 1477 1476 1475 1479 1485 1488 1488 1490 1492 1495 1499 1501 1506 1507 1508 1514 1517 1518 1521 1527 1529 1527 1529 1530 1533 1535 1536 1537 1538 1540 1542 1543 1545
1521 1520 1518 1517 1516 1514 1513 1512 1510 1509 1507 1505 1504 1502 1500 1498 1496 1494 1493 1491 1489 1488 1487 1485 1484 1483 1482 1480 1478 1474 1472 1472 1472 1471 1472 1472 1474 1474 1475 1475 1475 1476 1477 1477 1478 1479 1481 1483 1486 1487 1486 1484 1485 1485 1481 1476 1475 1475 1478 1491 1496 1492 1495 1493 1493 1498 1498 1506 1507 1507 1521 1525 1523 1525 1526 1527 1529 1529 1530 1533 1535 1536 1538 1539 1540 1542 1543 1545
1519 1518 1517 1516 1514 1513 1512 1510 1508 1507 1505 1504 1502 1500 1499 1496 1494 1493 1491 1489 1488 1486 1485 1483 1482 1481 1481 1477 1471 1470 1471 1470 1470 1470 1470 1471 1472 1473 1473 1474 1475 1476 1476 1477 1478 1479 1481 1484 1486 1487 1485 1484 1485 1486 1483 1476 1475 1477 1479 1490 1500 1504 1506 1496 1493 1496 1497 1504 1503 1508 1532 1538 1527 1525 1525 1526 1528 1529 1530 1532 1534 1536 1537 1539 1541 1542 1543 1544
1518 1516 1515 1514 1512 1511 1510 1508 1507 1505 1503 1502 1500 1499 1497 1495 1493 1491 1489 1487 1485 1484 1482 1482 1480 1480 1480 1473 1467 1468 1468 1467 1468 1468 1469 1470 1471 1471 1472 1472 1473 1475 1476 1477 1477 1479 1481 1483 1486 1485 1485 1484 1482 1483 1483 1477 1475 1480 1485 1491 1500 1513 1514 1498 1492 1496 1500 1505 1500 1507 1534 1539 1527 1524 1524 1526 1527 1528 1530 1531 1533 1535 1536 1538 1539 1541 1543 1543
1517 1515 1513 1512 1511 1509 1508 1507 1505 1503 1502 1500 1499 1497 1495 1494 1491 1489 1487 1485 1483 1481 1480 1480 1479 1479 1477 1469 1465 1467 1466 1466 1466 1467 1469 1469 1469 1470 1470 1471 1472 1473 1475 1477 1476 1478 1481 1483 1485 1484 1483 1481 1480 1485 1486 1483 1479 1480 1494 1503 1503 1511 1514 1502 1493 1493 1499 1506 1501 1508 1532 1536 1527 1524 1523 1525 1526 1527 1529 1531 1533 1534 1535 1537 1538 1539 1541 1543
1516 1514 1512 1511 1509 1508 1506 1505 1503 1502 1500 1498 1497 1496 1494 1492 1490 1487 1485 1482 1480 1479 1479 1479 1478 1478 1477 1469 1464 1465 1465 1465 1466 1467 1468 1468 1469 1469 1470 1471 1472 1473 1475 1476 1476 1477 1480 1482 1483 1482 1481 1480 1481 1488 1492 1493 1491 1485 1494 1506 1505 1508 1515 1510 1499 1490 1492 1502 1503 1508 1526 1533 1525 1522 1522 1523 1525 1526 1528 1531 1532 1534 1535 1536 1537 1538 1540 1541
1514 1513 1511 1509 1508 1506 1505 1503 1501 1499 1498 1497 1495 1494 1493 1490 1488 1486 1483 1481 1480 1479 1479 1478 1477 1477 1473 1465 1464 1464 1464 1466 1466 1467 1467 1467 1468 1469 1470 1471 1471 1473 1474 1475 1476 1476 1479 1480 1481 1482 1479 1478 1479 1487 1500 1507 1503 1495 1494 1500 1501 1503 1510 1513 1507 1495 1490 1498 1505 1508 1516 1524 1520 1517 1520 1521 1523 1525 1527 1529 1531 1532 1534 1535 1536 1537 1538 1540
1513 1511 1509 1508 1506 1505 1503 1502 1500 1498 1496 1495 1494 1492 1491 1489 1486 1484 1482 1481 1480 1480 1479 1477 1478 1479 1470 1462 1464 1464 1464 1466 1466 1466 1467 1467 1468 1469 1470 1470 1471 1473 1473 1474 1474 1474 1478 1477 1478 1482 1480 1480 1481 1488 1505 1508 1500 1498 1497 1499 1501 1500 1503 1507 1505 1497 1492 1497 1506 1511 1515 1518 1516 1515 1517 1518 1520 1523 1524 1527 1529 1530 1532 1533 1534 1535 1537 1538
1512 1510 1508 1506 1505 1503 1502 1500 1498 1496 1494 1493 1493 1491 1489 1487 1485 1483 1482 1481 1480 1479 1479 1477 1477 1478 1471 1462 1462 1464 1465 1466 1466 1466 1466 1466 1468 1469 1469 1470 1471 1472 1473 1475 1474 1471 1474 1477 1479 1486 1486 1484 1483 1487 1495 1494 1489 1490 1490 1493 1499 1500 1500 1498 1495 1490 1489 1500 1507 1510 1514 1515 1515 1515 1514 1515 1517 1520 1523 1524 1527 1529 1530 1531 1532 1534 1535 1536
1510 1508 1507 1504 1503 1502 1500 1499 1497 1495 1493 1492 1491 1490 1488 1487 1485 1483 1481 1480 1478 1476 1475 1474 1472 1471 1467 1460 1460 1463 1464 1464 1464 1463 1464 1465 1466 1468 1468 1469 1470 1471 1472 1474 1474 1469 1471 1481 1485 1486 1485 1480 1480 1481 1482 1483 1484 1484 1486 1489 1493 1497 1498 1492 1490 1486 1484 1498 1508 1505 1508 1511 1511 1511 1509 1511 1515 1517 1520 1522 1523 1526 1527 1528 1530 1531 1533 1534
1509 1507 1505 1503 1501 1500 1499 1497 1495 1494 1492 1491 1490 1490 1489 1490 1490 1487 1482 1476 1472 1472 1471 1469 1469 1466 1461 1458 1457 1460 1463 1462 1461 1460 1461 1463 1464 1466 1467 1467 1469 1472 1471 1470 1472 1469 1472 1483 1483 1479 1477 1474 1473 1475 1478 1482 1483 1484 1487 1490 1492 1494 1494 1487 1486 1486 1482 1496 1508 1504 1507 1510 1507 1508 1507 1508 1512 1513 1515 1517 1520 1521 1523 1525 1527 1529 1530 1532
1508 1505 1503 1502 1499 1498 1497 1496 1494 1492 1491 1491 1490 1489 1490 1491 1491 1490 1487 1476 1465 1466 1468 1464 1464 1462 1457 1455 1454 1457 1463 1461 1459 1458 1458 1461 1462 1463 1464 1465 1469 1472 1470 1469 1473 1475 1479 1481 1476 1471 1470 1470 1471 1472 1476 1481 1483 1486 1487 1491 1495 1492 1491 1488 1484 1484 1482 1494 1508 1506 1508 1511 1505 1504 1504 1504 1506 1507 1509 1511 1514 1516 1519 1522 1523 1526 1528 1530
1506 1503 1502 1500 1497 1497 1495 1494 1493 1491 1490 1490 1488 1489 1489 1488 1488 1487 1487 1479 1463 1458 1461 1459 1458 1457 1453 1452 1451 1454 1459 1458 1457 1455 1455 1458 1458 1460 1462 1463 1468 1470 1470 1471 1476 1481 1485 1478 1468 1466 1468 1470 1473 1472 1475 1481 1484 1486 1487 1492 1496 1490 1493 1497 1489 1485 1484 1490 1502 1505 1509 1512 1508 1506 1504 1503 1503 1504 1506 1508 1510 1512 1514 1516 1518 1521 1524 1526
1504 1502 1501 1497 1496 1495 1494 1493 1491 1489 1489 1488 1488 1488 1487 1486 1486 1485 1482 1478 1465 1451 1450 1452 1451 1451 1447 1446 1448 1452 1453 1453 1453 1452 1453 1455 1455 1458 1460 1461 1466 1470 1469 1469 1473 1479 1480 1470 1462 1464 1467 1470 1475 1475 1476 1484 1487 1486 1484 1487 1490 1487 1489 1491 1487 1486 1489 1493 1496 1504 1519 1519 1512 1513 1509 1503 1503 1503 1505 1507 1508 1510 1510 1512 1515 1518 1520 1522
1501 1501 1498 1495 1495 1492 1493 1492 1489 1489 1487 1487 1488 1486 1486 1485 1485 1485 1481 1480 1471 1450 1443 1445 1442 1441 1439 1441 1446 1447 1449 1448 1448 1449 1450 1452 1453 1456 1458 1458 1464 1469 1469 1468 1472 1477 1475 1465 1462 1466 1468 1468 1474 1477 1476 1482 1488 1487 1481 1479 1480 1481 1483 1486 1486 1489 1503 1513 1501 1501 1530 1533 1515 1513 1511 1504 1505 1505 1504 1505 1506 1508 1509 1511 1513 1515 1517 1519
1500 1499 1496 1495 1493 1490 1491 1490 1488 1489 1486 1486 1486 1484 1486 1484 1484 1485 1480 1485 1479 1452 1441 1441 1437 1434 1432 1437 1440 1444 1451 1447 1442 1446 1448 1449 1451 1453 1458 1458 1459 1464 1465 1465 1469 1472 1468 1462 1461 1466 1468 1468 1473 1476 1472 1474 1487 1489 1477 1469 1470 1473 1478 1484 1486 1492 1508 1515 1498 1491 1517 1532 1521 1514 1509 1504 1506 1505 1503 1503 1503 1505 1507 1508 1509 1511 1514 1516
1498 1497 1495 1494 1491 1489 1489 1487 1488 1487 1485 1486 1483 1483 1485 1482 1484 1482 1481 1498 1484 1447 1439 1439 1434 1432 1428 1431 1435 1443 1453 1445 1439 1443 1443 1447 1450 1450 1458 1459 1458 1461 1458 1463 1473 1468 1461 1463 1464 1465 1467 1470 1474 1475 1468 1468 1483 1484 1466 1461 1467 1470 1475 1479 1482 1490 1496 1497 1497 1494 1501 1521 1525 1513 1504 1503 1507 1507 1504 1503 1501 1502 1503 1504 1506 1507 1509 1512
1496 1495 1494 1492 1491 1490 1487 1486 1487 1485 1485 1484 1481 1484 1482 1481 1484 1479 1490 1511 1479 1437 1436 1436 1430 1431 1428 1430 1434 1438 1443 1438 1439 1443 1439 1444 1447 1447 1454 1455 1457 1459 1453 1462 1476 1466 1456 1462 1465 1464 1469 1471 1469 1467 1461 1464 1476 1471 1457 1458 1464 1466 1470 1472 1476 1486 1487 1495 1510 1505 1498 1517 1526 1510 1502 1504 1507 1508 1505 1501 1499 1498 1500 1501 1502 1504 1505 1507
1494 1493 1492 1490 1489 1489 1487 1485 1485 1484 1484 1482 1481 1483 1480 1482 1482 1478 1499 1507 1464 1433 1436 1432 1430 1431 1428 1431 1434 1435 1435 1434 1438 1439 1438 1442 1444 1445 1451 1451 1452 1456 1453 1457 1468 1463 1454 1456 1457 1459 1467 1467 1461 1457 1454 1462 1468 1459 1452 1457 1460 1463 1466 1468 1476 1483 1488 1502 1514 1506 1498 1513 1521 1510 1505 1508 1508 1505 1499 1495 1494 1494 1496 1497 1498 1500 1502 1504
1492 1491 1490 1487 1486 1486 1485 1484 1484 1484 1483 1481 1482 1481 1479 1482 1480 1492 1513 1497 1456 1440 1436 1431 1432 1430 1429 1434 1436 1434 1434 1433 1433 1434 1437 1439 1441 1444 1447 1448 1449 1454 1456 1455 1460 1459 1452 1450 1451 1453 1458 1456 1453 1452 1450 1454 1457 1452 1455 1460 1462 1466 1468 1472 1478 1482 1495 1508 1507 1499 1494 1502 1514 1511 1503 1501 1494 1488 1488 1490 1491 1491 1493 1494 1495 1497 1499 1502
1490 1489 1488 1485 1484 1483 1482 1481 1483 1483 1482 1481 1481 1480 1481 1480 1483 1503 1509 1477 1453 1445 1434 1433 1434 1429 1431 1436 1438 1436 1434 1433 1431 1433 1439 1438 1441 1445 1446 1451 1452 1456 1462 1461 1460 1458 1453 1454 1451 1448 1448 1447 1449 1452 1448 1447 1449 1453 1460 1465 1471 1477 1476 1482 1487 1488 1503 1511 1498 1490 1490 1497 1511 1506 1494 1487 1476 1471 1477 1482 1485 1486 1487 1489 1492 1494 1496 1499
1487 1486 1485 1484 1482 1480 1479 1479 1481 1482 1481 1481 1481 1480 1481 1486 1493 1498 1486 1464 1457 1446 1433 1436 1434 1431 1433 1433 1436 1435 1433 1435 1431 1432 1438 1439 1444 1446 1447 1452 1454 1462 1471 1468 1465 1463 1458 1455 1450 1446 1444 1443 1451 1458 1454 1449 1449 1455 1463 1470 1482 1490 1491 1498 1501 1498 1504 1501 1486 1483 1488 1498 1502 1489 1479 1477 1470 1467 1468 1469 1474 1477 1480 1485 1488 1491 1493 1496
1485 1483 1482 1481 1479 1476 1476 1477 1479 1480 1480 1480 1481 1479 1481 1494 1496 1482 1471 1466 1456 1438 1433 1437 1434 1434 1436 1435 1435 1432 1432 1435 1431 1432 1436 1437 1444 1446 1445 1445 1445 1457 1467 1466 1467 1469 1465 1457 1448 1449 1446 1439 1446 1459 1463 1459 1455 1459 1465 1472 1484 1494 1503 1511 1509 1505 1504 1495 1481 1478 1486 1496 1493 1476 1467 1465 1460 1458 1460 1463 1469 1472 1475 1480 1484 1487 1491 1493
1482 1480 1478 1476 1475 1473 1473 1475 1476 1477 1479 1479 1480 1481 1486 1494 1484 1468 1466 1462 1448 1436 1437 1439 1438 1438 1437 1436 1433 1427 1433 1436 1429 1432 1437 1438 1446 1448 1446 1444 1442 1447 1455 1460 1465 1467 1472 1467 1451 1448 1447 1440 1441 1447 1452 1454 1455 1456 1456 1463 1474 1480 1493 1504 1503 1502 1500 1491 1483 1482 1487 1490 1484 1467 1455 1451 1449 1450 1456 1463 1468 1471 1474 1477 1482 1486 1489 1491
1478 1477 1474 1471 1470 1470 1470 1472 1472 1474 1477 1477 1479 1483 1487 1485 1472 1463 1460 1453 1447 1446 1442 1439 1441 1443 1440 1435 1429 1423 1428 1433 1429 1432 1438 1440 1445 1446 1444 1443 1441 1443 1451 1461 1462 1457 1467 1465 1444 1438 1437 1435 1438 1436 1434 1446 1456 1452 1448 1459 1468 1465 1471 1483 1488 1486 1485 1486 1484 1481 1480 1474 1465 1455 1446 1447 1450 1451 1457 1463 1467 1472 1475 1477 1482 1485 1487 1489
1475 1473 1470 1467 1465 1466 1466 1467 1468 1470 1473 1474 1480 1483 1477 1467 1459 1456 1451 1446 1448 1450 1447 1446 1444 1445 1445 1437 1431 1425 1423 1426 1429 1433 1437 1438 1439 1440 1439 1437 1434 1437 1445 1455 1457 1453 1462 1458 1438 1434 1434 1429 1432 1431 1428 1440 1453 1451 1452 1460 1458 1449 1455 1473 1484 1477 1477 1489 1486 1475 1473 1467 1461 1458 1451 1450 1454 1455 1458 1461 1464 1469 1473 1476 1480 1481 1484 1486
1471 1468 1465 1463 1461 1460 1461 1462 1464 1467 1470 1472 1477 1474 1465 1455 1448 1447 1445 1443 1445 1446 1451 1457 1450 1447 1449 1442 1434 1428 1424 1426 1429 1433 1438 1438 1436 1434 1434 1431 1428 1430 1434 1443 1449 1447 1453 1455 1437 1432 1438 1429 1422 1426 1425 1426 1435 1448 1455 1452 1446 1448 1452 1464 1481 1484 1488 1498 1488 1474 1476 1475 1473 1472 1462 1457 1459 1459 1458 1459 1462 1467 1470 1473 1475 1477 1480 1482
1469 1466 1462 1460 1458 1457 1457 1458 1461 1464 1467 1471 1472 1466 1459 1452 1444 1444 1445 1445 1446 1447 1452 1460 1452 1444 1446 1446 1438 1429 1427 1431 1430 1431 1435 1437 1433 1428 1428 1429 1425 1424 1425 1433 1443 1441 1445 1456 1443 1427 1433 1428 1418 1427 1435 1426 1423 1434 1440 1436 1443 1461 1466 1466 1478 1488 1496 1503 1493 1479 1477 1476 1475 1472 1465 1462 1463 1460 1459 1460 1462 1465 1467 1469 1471 1474 1477 1479
1469 1465 1461 1457 1456 1455 1455 1457 1459 1462 1466 1470 1471 1464 1456 1449 1443 1445 1448 1447 1449 1450 1452 1455 1451 1445 1443 1444 1441 1433 1430 1430 1428 1428 1431 1433 1431 1423 1420 1424 1423 1421 1420 1426 1438 1438 1439 1455 1452 1429 1423 1426 1424 1432 1443 1439 1429 1427 1431 1434 1439 1451 1459 1464 1469 1475 1485 1497 1497 1488 1482 1476 1467 1460 1457 1459 1458 1457 1459 1460 1460 1460 1462 1465 1468 1471 1475 1477
1470 1466 1462 1457 1455 1455 1455 1457 1459 1463 1465 1466 1465 1461 1454 1448 1444 1444 1447 1447 1447 1449 1449 1449 1448 1447 1443 1439 1438 1434 1430 1427 1424 1424 1424 1424 1426 1422 1415 1416 1418 1418 1417 1420 1429 1433 1436 1450 1454 1436 1424 1429 1433 1432 1435 1439 1437 1437 1441 1445 1445 1444 1448 1456 1462 1464 1470 1484 1493 1492 1488 1474 1455 1448 1449 1450 1450 1451 1452 1454 1455 1456 1459 1462 1464 1467 1470 1473
1470 1468 1464 1459 1457 1458 1459 1459 1460 1462 1463 1461 1460 1457 1453 1449 1444 1443 1445 1446 1444 1442 1442 1443 1444 1444 1441 1438 1435 1432 1430 1426 1421 1420 1420 1418 1421 1422 1414 1409 1411 1413 1416 1422 1426 1429 1434 1442 1449 1444 1435 1435 1432 1420 1418 1423 1428 1433 1439 1443 1445 1447 1450 1461 1469 1465 1460 1468 1477 1483 1486 1470 1447 1440 1442 1442 1443 1444 1445 1448 1452 1454 1456 1459 1461 1463 1467 1470
1472 1470 1465 1462 1462 1462 1462 1462 1460 1460 1460 1459 1457 1454 1452 1448 1443 1442 1443 1443 1441 1438 1437 1437 1438 1438 1437 1436 1432 1428 1427 1424 1418 1416 1415 1412 1412 1412 1405 1401 1403 1404 1411 1420 1420 1418 1424 1433 1443 1445 1438 1432 1423 1412 1410 1413 1416 1423 1429 1432 1437 1442 1448 1460 1470 1466 1459 1463 1465 1471 1478 1465 1443 1436 1438 1439 1440 1441 1443 1446 1449 1451 1453 1455 1458 1461 1464 1468
1472 1468 1462 1462 1463 1462 1463 1463 1460 1458 1457 1455 1453 1451 1449 1446 1442 1441 1441 1441 1438 1436 1436 1434 1432 1432 1431 1428 1425 1424 1422 1419 1413 1410 1410 1408 1403 1397 1393 1394 1398 1400 1406 1415 1415 1413 1419 1430 1440 1443 1435 1425 1418 1410 1407 1407 1413 1423 1426 1426 1432 1437 1438 1444 1452 1455 1458 1462 1463 1470 1478 1464 1442 1434 1436 1438 1440 1441 1443 1445 1446 1449 1451 1453 1456 1459 1462 1466
1471 1465 1459 1460 1461 1459 1461 1462 1461 1459 1455 1453 1451 1448 1445 1442 1440 1439 1438 1438 1435 1433 1434 1432 1428 1427 1424 1421 1421 1420 1420 1419 1411 1403 1403 1405 1398 1390 1387 1388 1393 1399 1403 1406 1407 1410 1419 1428 1436 1445 1447 1441 1435 1430 1423 1418 1418 1424 1425 1424 1427 1429 1431 1436 1443 1449 1458 1460 1458 1466 1475 1462 1443 1437 1437 1438 1440 1442 1443 1443 1445 1447 1448 1451 1453 1456 1459 1463
1470 1464 1458 1457 1458 1458 1458 1457 1457 1457 1454 1452 1450 1446 1443 1439 1435 1434 1433 1432 1430 1429 1430 1427 1423 1422 1420 1419 1420 1418 1415 1417 1413 1404 1400 1400 1394 1387 1386 1387 1389 1392 1392 1393 1393 1400 1415 1423 1428 1442 1454 1455 1451 1444 1434 1427 1424 1423 1422 1422 1424 1426 1429 1435 1443 1453 1460 1460 1456 1460 1465 1457 1444 1441 1442 1441 1441 1443 1443 1443 1444 1445 1446 1448 1450 1453 1457 1459
1474 1470 1462 1457 1455 1455 1455 1454 1454 1456 1455 1456 1454 1448 1443 1439 1434 1431 1429 1427 1425 1423 1424 1422 1420 1421 1421 1420 1421 1418 1412 1411 1410 1407 1404 1402 1396 1388 1385 1387 1388 1387 1386 1387 1388 1395 1409 1416 1418 1428 1437 1439 1438 1430 1420 1418 1423 1426 1423 1421 1422 1424 1425 1431 1442 1451 1454 1454 1455 1453 1453 1453 1450 1446 1445 1443 1441 1441 1441 1442 1442 1443 1444 1446 1448 1451 1455 1457
1477 1474 1469 1465 1460 1455 1454 1452 1454 1457 1457 1459 1458 1449 1444 1441 1435 1430 1426 1424 1421 1418 1418 1418 1418 1421 1424 1424 1423 1419 1413 1409 1408 1408 1407 1405 1399 1391 1385 1384 1386 1387 1386 1386 1387 1394 1407 1415 1415 1418 1421 1420 1420 1417 1412 1412 1418 1421 1422 1421 1420 1421 1423 1430 1439 1441 1442 1450 1457 1451 1447 1451 1450 1445 1443 1441 1438 1438 1438 1439 1439 1440 1442 1444 1447 1450 1452 1455
1476 1474 1471 1472 1469 1464 1461 1457 1457 1458 1456 1455 1455 1449 1444 1441 1436 1432 1426 1421 1417 1415 1415 1418 1418 1418 1421 1425 1426 1420 1414 1411 1410 1409 1408 1407 1403 1398 1391 1384 1383 1385 1386 1387 1387 1390 1403 1412 1411 1412 1415 1414 1413 1412 1410 1411 1414 1415 1417 1419 1418 1419 1422 1427 1432 1433 1434 1443 1446 1443 1444 1446 1442 1438 1437 1434 1431 1431 1433 1434 1436 1438 1440 1443 1445 1448 1450 1453
1476 1474 1472 1472 1471 1469 1467 1462 1459 1458 1455 1454 1452 1447 1444 1442 1437 1431 1425 1420 1418 1414 1413 1417 1417 1415 1416 1419 1421 1420 1415 1413 1414 1412 1409 1408 1406 1404 1400 1393 1386 1382 1384 1388 1387 1386 1396 1406 1406 1407 1413 1412 1411 1411 1409 1410 1414 1414 1413 1413 1414 1416 1419 1421 1425 1426 1428 1432 1431 1433 1441 1440 1432 1429 1428 1424 1423 1426 1429 1432 1434 1436 1439 1441 1443 1446 1449 1451
1478 1478 1474 1472 1471 1468 1466 1463 1460 1458 1455 1453 1451 1446 1443 1441 1438 1432 1424 1422 1421 1416 1412 1415 1414 1411 1412 1413 1414 1415 1411 1410 1413 1411 1408 1409 1409 1405 1403 1399 1391 1387 1387 1389 1387 1385 1392 1402 1400 1402 1413 1414 1409 1409 1409 1409 1413 1415 1414 1412 1411 1413 1416 1417 1420 1422 1426 1430 1428 1431 1440 1439 1427 1421 1421 1422 1424 1427 1429 1432 1433 1435 1438 1440 1442 1445 1447 1449
1479 1479 1477 1475 1471 1466 1465 1463 1460 1459 1456 1452 1450 1448 1444 1441 1437 1431 1423 1417 1418 1418 1415 1414 1412 1409 1409 1411 1413 1412 1407 1405 1408 1405 1402 1406 1406 1403 1401 1396 1393 1394 1392 1390 1390 1387 1391 1399 1398 1401 1415 1417 1408 1408 1410 1407 1409 1414 1414 1412 1412 1414 1416 1417 1418 1419 1423 1427 1431 1435 1441 1436 1424 1419 1423 1426 1427 1428 1430 1431 1433 1435 1437 1439 1441 1443 1444 1447
1477 1477 1476 1476 1472 1467 1465 1463 1461 1460 1456 1452 1450 1449 1446 1441 1435 1430 1424 1415 1412 1414 1414 1412 1409 1408 1410 1412 1412 1409 1404 1402 1402 1400 1398 1400 1399 1397 1396 1392 1390 1394 1393 1391 1390 1389 1389 1394 1396 1402 1415 1416 1407 1406 1407 1407 1418 1425 1417 1410 1412 1414 1415 1416 1416 1415 1415 1419 1429 1435 1432 1423 1417 1419 1424 1429 1429 1428 1428 1429 1432 1434 1436 1438 1440 1442 1444 1447